Weather in Tatishchevo

Russia / Orenburg Oblast     51°41′34″N   54°18′47″E
temp.,
°C
wind,
m/s
gust,
m/s
humid.,
%
clouds,
%
prec.,
mm/h
press.,
hPa
HPBL,
m
9 december, thu
thu923:00−7ese51092100 0.0 1035206
02:00−8e51089100 0.0 1034198
05:00−8e51086100 0.0 1033194
08:00−8e61285100 0.0 1032219
11:00−5e61384100 0.0 1031357
14:00−3ese61378100 0.0 1029383
17:00−4e61278100 0.0 1028240
20:00−5e61280100 0.0 1027253
10 december, fri
fri1023:00−5e61279100 0.0 1027258
02:00−5e51083100 0.0 1026181
05:00−5e61083100 0.0 1024194
08:00−5ene5986100 0.0 1023162
11:00−5e5986100 0.0 1024213
14:00−3ene5888100 0.0 1022221
17:00−3ene61087100 0.0 1023221
20:00−4ene5118799 0.0 1023234
11 december, sat
sat1123:00−5ne51182100 0.0 1024201
02:00−5ne51179100 0.0 1023219
05:00−5nne51180100 0.0 1024264
08:00−5ne51283100 0.0 1025293
11:00−6ne5128190 0.0 1027242
14:00−5ne6138186 0.0 1028350
17:00−6ne714855 0.0 1030315
20:00−7ne614793 0.0 1033322
12 december, sun
sun1223:00−8ne614750 0.0 1034276
02:00−10ene614730 0.0 1036226
05:00−11ne411770 0.0 1038134
08:00−12ne38784 0.0 1040104
11:00−12ne28810 0.0 1041111
14:00−9ne38805 0.0 1042167
17:00−11ne36805 0.0 104369
20:00−14nne22835 0.0 104412
13 december, mon
mon1323:00−15nne22843 0.0 104410
02:00−15nne11845 0.0 104410
05:00−16nne11844 0.0 104410
08:00−16nne11845 0.0 104410
11:00−15ne11875 0.0 104413
14:00−9nnw11815 0.0 104317
17:00−13n11855 0.0 10439
20:00−15nne11855 0.0 10439